Time,TemperatureF,DewpointF,PressureIn,WindDirection,WindDirectionDegrees,WindSpeedMPH,WindSpeedGustMPH,Humidity,HourlyPrecipIn,Conditions,Clouds,dailyrainin,SolarRadiationWatts/m^2,SoftwareType,DateUTC
2013-07-21 00:02:00,74.0,72.0,-100.00,SSE,166,3.0,5.0,95,0.00,,,0.01,0.000000,,2013-07-21 05:02:00,
2013-07-21 00:32:00,74.0,72.0,-100.00,SE,145,3.0,8.0,95,0.00,,,0.01,0.000000,,2013-07-21 05:32:00,
2013-07-21 00:42:00,74.0,72.0,-100.00,SE,145,3.0,8.0,95,0.00,,,0.01,0.000000,,2013-07-21 05:42:00,
2013-07-21 00:52:00,74.0,72.0,-100.00,SE,145,3.0,8.0,95,0.00,,,0.01,0.000000,,2013-07-21 05:52:00,
2013-07-21 01:01:00,74.0,72.0,-100.00,SE,145,3.0,8.0,95,0.00,,,0.01,0.000000,,2013-07-21 06:01:00,
2013-07-21 01:32:00,74.0,73.0,-100.00,SE,146,3.0,6.0,96,0.00,,,0.01,0.000000,,2013-07-21 06:32:00,
2013-07-21 01:43:00,74.0,73.0,-100.00,SE,146,3.0,6.0,96,0.00,,,0.01,0.000000,,2013-07-21 06:43:00,
2013-07-21 01:53:00,74.0,73.0,-100.00,SE,146,3.0,6.0,96,0.00,,,0.01,0.000000,,2013-07-21 06:53:00,
2013-07-21 02:01:00,74.0,73.0,-100.00,SE,146,3.0,6.0,96,0.00,,,0.01,0.000000,,2013-07-21 07:01:00,
2013-07-21 02:32:00,73.0,72.0,-100.00,SSE,160,3.0,5.0,96,0.00,,,0.01,0.000000,,2013-07-21 07:32:00,
2013-07-21 02:43:00,73.0,72.0,-100.00,SSE,160,3.0,5.0,96,0.00,,,0.01,0.000000,,2013-07-21 07:43:00,
2013-07-21 02:53:00,73.0,72.0,-100.00,SSE,160,3.0,5.0,96,0.00,,,0.01,0.000000,,2013-07-21 07:53:00,
2013-07-21 03:01:00,73.0,72.0,-100.00,SSE,160,3.0,5.0,96,0.00,,,0.01,0.000000,,2013-07-21 08:01:00,
2013-07-21 03:33:00,72.0,71.0,-100.00,SE,134,2.0,4.0,97,0.00,,,0.01,0.000000,,2013-07-21 08:33:00,
2013-07-21 03:43:00,72.0,71.0,-100.00,SE,134,2.0,4.0,97,0.00,,,0.01,0.000000,,2013-07-21 08:43:00,
2013-07-21 03:52:00,72.0,71.0,-100.00,SE,134,2.0,4.0,97,0.00,,,0.01,0.000000,,2013-07-21 08:52:00,
2013-07-21 04:02:00,72.0,71.0,-100.00,SE,134,2.0,4.0,97,0.00,,,0.01,0.000000,,2013-07-21 09:02:00,
2013-07-21 04:32:00,72.0,71.0,-100.00,SE,132,3.0,4.0,97,0.00,,,0.01,0.000000,,2013-07-21 09:32:00,
2013-07-21 04:42:00,72.0,71.0,-100.00,SE,132,3.0,4.0,97,0.00,,,0.01,0.000000,,2013-07-21 09:42:00,
2013-07-21 04:52:00,72.0,71.0,-100.00,SE,132,3.0,4.0,97,0.00,,,0.01,0.000000,,2013-07-21 09:52:00,
2013-07-21 05:02:00,72.0,71.0,-100.00,SE,132,3.0,4.0,97,0.00,,,0.01,0.000000,,2013-07-21 10:02:00,
2013-07-21 05:32:00,72.0,71.0,-100.00,SE,125,3.0,5.0,97,0.00,,,0.01,0.000000,,2013-07-21 10:32:00,
2013-07-21 05:43:00,72.0,71.0,-100.00,SE,125,3.0,5.0,97,0.00,,,0.01,0.000000,,2013-07-21 10:43:00,
2013-07-21 05:52:00,72.0,71.0,-100.00,SE,125,3.0,5.0,97,0.00,,,0.01,0.000000,,2013-07-21 10:52:00,
2013-07-21 06:02:00,72.0,71.0,-100.00,SE,125,3.0,5.0,97,0.00,,,0.01,0.000000,,2013-07-21 11:02:00,
2013-07-21 06:33:00,72.0,71.0,-100.00,East,99,2.0,4.0,97,0.00,,,0.01,0.000000,,2013-07-21 11:33:00,
2013-07-21 06:43:00,72.0,71.0,-100.00,East,99,2.0,4.0,97,0.00,,,0.01,0.000000,,2013-07-21 11:43:00,
2013-07-21 06:52:00,72.0,71.0,-100.00,East,99,2.0,4.0,97,0.00,,,0.01,0.000000,,2013-07-21 11:52:00,
2013-07-21 07:01:00,72.0,71.0,-100.00,East,99,2.0,4.0,97,0.00,,,0.01,0.000000,,2013-07-21 12:01:00,
2013-07-21 07:32:00,72.0,71.0,-100.00,SE,135,3.0,5.0,97,0.00,,,0.00,7.000000,,2013-07-21 12:32:00,
2013-07-21 07:43:00,72.0,71.0,-100.00,SE,135,3.0,5.0,97,0.00,,,0.00,7.000000,,2013-07-21 12:43:00,
2013-07-21 07:53:00,72.0,71.0,-100.00,SE,135,3.0,5.0,97,0.00,,,0.00,7.000000,,2013-07-21 12:53:00,
2013-07-21 08:01:00,72.0,71.0,-100.00,SE,135,3.0,5.0,97,0.00,,,0.00,7.000000,,2013-07-21 13:01:00,
2013-07-21 08:33:00,74.0,73.0,-100.00,SSE,161,4.0,6.0,97,0.00,,,0.00,38.000000,,2013-07-21 13:33:00,
2013-07-21 08:43:00,74.0,73.0,-100.00,SSE,161,4.0,6.0,97,0.00,,,0.00,38.000000,,2013-07-21 13:43:00,
2013-07-21 08:53:00,74.0,73.0,-100.00,SSE,161,4.0,6.0,97,0.00,,,0.00,38.000000,,2013-07-21 13:53:00,
2013-07-21 09:01:00,74.0,73.0,-100.00,SSE,161,4.0,6.0,97,0.00,,,0.00,38.000000,,2013-07-21 14:01:00,
2013-07-21 09:32:00,78.0,75.0,-100.00,South,187,4.0,11.0,90,0.00,,,0.00,63.000000,,2013-07-21 14:32:00,
2013-07-21 09:43:00,78.0,75.0,-100.00,South,187,4.0,11.0,90,0.00,,,0.00,63.000000,,2013-07-21 14:43:00,
2013-07-21 09:53:00,78.0,75.0,-100.00,South,187,4.0,11.0,90,0.00,,,0.00,63.000000,,2013-07-21 14:53:00,
2013-07-21 10:02:00,78.0,75.0,-100.00,South,187,4.0,11.0,90,0.00,,,0.00,63.000000,,2013-07-21 15:02:00,
2013-07-21 10:32:00,82.0,75.0,-100.00,SSW,213,6.0,11.0,79,0.00,,,0.00,355.000000,,2013-07-21 15:32:00,
2013-07-21 10:43:00,82.0,75.0,-100.00,SSW,213,6.0,11.0,79,0.00,,,0.00,355.000000,,2013-07-21 15:43:00,
2013-07-21 10:53:00,82.0,75.0,-100.00,SSW,213,6.0,11.0,79,0.00,,,0.00,355.000000,,2013-07-21 15:53:00,
2013-07-21 11:01:00,82.0,75.0,-100.00,SSW,213,6.0,11.0,79,0.00,,,0.00,355.000000,,2013-07-21 16:01:00,
2013-07-21 11:32:00,83.0,73.0,-100.00,South,191,6.0,12.0,73,0.00,,,0.00,464.000000,,2013-07-21 16:32:00,
2013-07-21 11:43:00,83.0,73.0,-100.00,South,191,6.0,12.0,73,0.00,,,0.00,464.000000,,2013-07-21 16:43:00,
2013-07-21 11:52:00,83.0,73.0,-100.00,South,191,6.0,12.0,73,0.00,,,0.00,464.000000,,2013-07-21 16:52:00,
2013-07-21 12:02:00,83.0,73.0,-100.00,South,191,6.0,12.0,73,0.00,,,0.00,464.000000,,2013-07-21 17:02:00,
2013-07-21 13:32:00,89.0,75.0,-100.00,South,178,6.0,15.0,64,-99.99,,,-99.99,730.000000,,2013-07-21 18:32:00,
2013-07-21 13:43:00,89.0,75.0,-100.00,South,178,6.0,15.0,64,-99.99,,,-99.99,730.000000,,2013-07-21 18:43:00,
2013-07-21 13:52:00,89.0,75.0,-100.00,South,178,6.0,15.0,64,-99.99,,,-99.99,730.000000,,2013-07-21 18:52:00,
2013-07-21 14:32:00,86.0,72.0,-100.00,SSE,164,9.0,19.0,63,-99.99,,,0.00,550.000000,,2013-07-21 19:32:00,
2013-07-21 14:42:00,86.0,72.0,-100.00,SSE,164,9.0,19.0,63,-99.99,,,0.00,550.000000,,2013-07-21 19:42:00,
2013-07-21 14:52:00,86.0,72.0,-100.00,SSE,164,9.0,19.0,63,-99.99,,,0.00,550.000000,,2013-07-21 19:52:00,
2013-07-21 15:01:00,86.0,72.0,-100.00,SSE,164,9.0,19.0,63,-99.99,,,0.00,550.000000,,2013-07-21 20:01:00,
2013-07-21 15:32:00,83.0,73.0,-100.00,SSW,193,10.0,22.0,73,-99.99,,,0.01,376.000000,,2013-07-21 20:32:00,
2013-07-21 15:43:00,83.0,73.0,-100.00,SSW,193,10.0,22.0,73,-99.99,,,0.01,376.000000,,2013-07-21 20:43:00,
2013-07-21 15:52:00,83.0,73.0,-100.00,SSW,193,10.0,22.0,73,-99.99,,,0.01,376.000000,,2013-07-21 20:52:00,
2013-07-21 16:01:00,83.0,73.0,-100.00,SSW,193,10.0,22.0,73,-99.99,,,0.01,376.000000,,2013-07-21 21:01:00,
2013-07-21 16:32:00,82.0,73.0,-100.00,SSW,206,6.0,19.0,74,0.00,,,0.01,204.000000,,2013-07-21 21:32:00,
2013-07-21 16:43:00,82.0,73.0,-100.00,SSW,206,6.0,19.0,74,0.00,,,0.01,204.000000,,2013-07-21 21:43:00,
2013-07-21 16:52:00,82.0,73.0,-100.00,SSW,206,6.0,19.0,74,0.00,,,0.01,204.000000,,2013-07-21 21:52:00,
2013-07-21 17:01:00,82.0,73.0,-100.00,SSW,206,6.0,19.0,74,0.00,,,0.01,204.000000,,2013-07-21 22:01:00,
2013-07-21 17:32:00,81.0,73.0,-100.00,South,190,3.0,10.0,78,0.00,,,0.01,60.000000,,2013-07-21 22:32:00,
2013-07-21 17:43:00,81.0,73.0,-100.00,South,190,3.0,10.0,78,0.00,,,0.01,60.000000,,2013-07-21 22:43:00,
2013-07-21 17:52:00,81.0,73.0,-100.00,South,190,3.0,10.0,78,0.00,,,0.01,60.000000,,2013-07-21 22:52:00,
2013-07-21 18:02:00,81.0,73.0,-100.00,South,190,3.0,10.0,78,0.00,,,0.01,60.000000,,2013-07-21 23:02:00,
2013-07-21 18:32:00,79.0,76.0,-100.00,South,180,3.0,7.0,91,0.01,,,0.02,52.000000,,2013-07-21 23:32:00,
2013-07-21 18:43:00,79.0,76.0,-100.00,South,180,3.0,7.0,91,0.01,,,0.02,52.000000,,2013-07-21 23:43:00,
2013-07-21 18:53:00,79.0,76.0,-100.00,South,180,3.0,7.0,91,0.01,,,0.02,52.000000,,2013-07-21 23:53:00,
2013-07-21 19:01:00,79.0,76.0,-100.00,South,180,3.0,7.0,91,0.01,,,0.02,52.000000,,2013-07-22 00:01:00,
2013-07-21 19:32:00,81.0,77.0,-100.00,SSW,195,4.0,7.0,89,0.00,,,0.02,87.000000,,2013-07-22 00:32:00,
2013-07-21 19:42:00,81.0,77.0,-100.00,SSW,195,4.0,7.0,89,0.00,,,0.02,87.000000,,2013-07-22 00:42:00,
2013-07-21 19:53:00,81.0,77.0,-100.00,SSW,195,4.0,7.0,89,0.00,,,0.02,87.000000,,2013-07-22 00:53:00,
2013-07-21 20:02:00,81.0,77.0,-100.00,SSW,195,4.0,7.0,89,0.00,,,0.02,87.000000,,2013-07-22 01:02:00,
2013-07-21 20:32:00,79.0,75.0,-100.00,SE,143,4.0,8.0,88,0.00,,,0.02,37.000000,,2013-07-22 01:32:00,
2013-07-21 20:42:00,79.0,75.0,-100.00,SE,143,4.0,8.0,88,0.00,,,0.02,37.000000,,2013-07-22 01:42:00,
2013-07-21 20:52:00,79.0,75.0,-100.00,SE,143,4.0,8.0,88,0.00,,,0.02,37.000000,,2013-07-22 01:52:00,
2013-07-21 21:02:00,79.0,75.0,-100.00,SE,143,4.0,8.0,88,0.00,,,0.02,37.000000,,2013-07-22 02:02:00,
2013-07-21 21:32:00,77.0,74.0,-100.00,South,172,4.0,8.0,92,0.00,,,0.02,3.000000,,2013-07-22 02:32:00,
2013-07-21 21:43:00,77.0,74.0,-100.00,South,172,4.0,8.0,92,0.00,,,0.02,3.000000,,2013-07-22 02:43:00,
2013-07-21 21:52:00,77.0,74.0,-100.00,South,172,4.0,8.0,92,0.00,,,0.02,3.000000,,2013-07-22 02:52:00,
2013-07-21 22:01:00,77.0,74.0,-100.00,South,172,4.0,8.0,92,0.00,,,0.02,3.000000,,2013-07-22 03:01:00,
2013-07-21 22:33:00,77.0,74.0,-100.00,South,174,6.0,10.0,90,0.00,,,0.02,0.000000,,2013-07-22 03:33:00,
2013-07-21 22:43:00,77.0,74.0,-100.00,South,174,6.0,10.0,90,0.00,,,0.02,0.000000,,2013-07-22 03:43:00,
2013-07-21 22:53:00,77.0,74.0,-100.00,South,174,6.0,10.0,90,0.00,,,0.02,0.000000,,2013-07-22 03:53:00,
2013-07-21 23:01:00,77.0,74.0,-100.00,South,174,6.0,10.0,90,0.00,,,0.02,0.000000,,2013-07-22 04:01:00,
2013-07-21 23:33:00,76.0,73.0,-100.00,SSW,193,5.0,9.0,90,0.00,,,0.02,0.000000,,2013-07-22 04:33:00,
2013-07-21 23:43:00,76.0,73.0,-100.00,SSW,193,5.0,9.0,90,0.00,,,0.02,0.000000,,2013-07-22 04:43:00,